Year,Month,Day,Hour,Minute,Value (Times are PST for temperature in C)
2006,11,27,00,00,-1.70
2006,11,27,00,01,-1.70
2006,11,27,00,02,-1.70
2006,11,27,00,03,-1.70
2006,11,27,00,04,-1.60
2006,11,27,00,05,-1.60
2006,11,27,00,06,-1.60
2006,11,27,00,07,-1.60
2006,11,27,00,08,-1.60
2006,11,27,00,09,-1.60
2006,11,27,00,10,-1.60
2006,11,27,00,11,-1.60
2006,11,27,00,12,-1.60
2006,11,27,00,13,-1.60
2006,11,27,00,14,-1.60
2006,11,27,00,15,-1.50
2006,11,27,00,16,-1.50
2006,11,27,00,17,-1.50
2006,11,27,00,18,-1.50
2006,11,27,00,19,-1.50
2006,11,27,00,20,-1.50
2006,11,27,00,21,-1.50
2006,11,27,00,22,-1.50
2006,11,27,00,23,-1.50
2006,11,27,00,24,-1.50
2006,11,27,00,25,-1.50
2006,11,27,00,26,-1.50
2006,11,27,00,27,-1.50
2006,11,27,00,28,-1.50
2006,11,27,00,29,-1.50
2006,11,27,00,30,-1.50
2006,11,27,00,31,-1.50
2006,11,27,00,32,-1.50
2006,11,27,00,33,-1.50
2006,11,27,00,34,-1.50
2006,11,27,00,35,-1.50
2006,11,27,00,36,-1.40
2006,11,27,00,37,-1.40
2006,11,27,00,38,-1.40
2006,11,27,00,39,-1.40
2006,11,27,00,40,-1.40
2006,11,27,00,41,-1.40
2006,11,27,00,42,-1.40
2006,11,27,00,43,-1.40
2006,11,27,00,44,-1.40
2006,11,27,00,45,-1.40
2006,11,27,00,46,-1.40
2006,11,27,00,47,-1.40
2006,11,27,00,48,-1.40
2006,11,27,00,49,-1.40
2006,11,27,00,50,-1.40
2006,11,27,00,51,-1.40
2006,11,27,00,52,-1.40
2006,11,27,00,53,-1.40
2006,11,27,00,54,-1.40
2006,11,27,00,55,-1.40
2006,11,27,00,56,-1.40
2006,11,27,00,57,-1.40
2006,11,27,00,58,-1.40
2006,11,27,00,59,-1.40
2006,11,27,01,00,-1.40
2006,11,27,01,01,-1.40
2006,11,27,01,02,-1.40
2006,11,27,01,03,-1.40
2006,11,27,01,04,-1.40
2006,11,27,01,05,-1.40
2006,11,27,01,06,-1.40
2006,11,27,01,07,-1.40
2006,11,27,01,08,-1.50
2006,11,27,01,09,-1.50
2006,11,27,01,10,-1.50
2006,11,27,01,11,-1.50
2006,11,27,01,12,-1.50
2006,11,27,01,13,-1.50
2006,11,27,01,14,-1.50
2006,11,27,01,15,-1.60
2006,11,27,01,16,-1.60
2006,11,27,01,17,-1.60
2006,11,27,01,18,-1.60
2006,11,27,01,19,-1.60
2006,11,27,01,20,-1.60
2006,11,27,01,21,-1.60
2006,11,27,01,22,-1.60
2006,11,27,01,23,-1.60
2006,11,27,01,24,-1.60
2006,11,27,01,25,-1.60
2006,11,27,01,26,-1.70
2006,11,27,01,27,-1.70
2006,11,27,01,28,-1.70
2006,11,27,01,29,-1.70
2006,11,27,01,30,-1.70
2006,11,27,01,31,-1.80
2006,11,27,01,32,-1.80
2006,11,27,01,33,-1.80
2006,11,27,01,34,-1.80
2006,11,27,01,35,-1.80
2006,11,27,01,36,-1.80
2006,11,27,01,37,-1.80
2006,11,27,01,38,-1.80
2006,11,27,01,39,-1.80
2006,11,27,01,40,-1.80
2006,11,27,01,41,-1.90
2006,11,27,01,42,-1.90
2006,11,27,01,43,-1.90
2006,11,27,01,44,-1.90
2006,11,27,01,45,-1.90
2006,11,27,01,46,-1.90
2006,11,27,01,47,-1.90
2006,11,27,01,48,-1.90
2006,11,27,01,49,-1.90
2006,11,27,01,50,-1.90
2006,11,27,01,51,-1.90
2006,11,27,01,52,-1.90
2006,11,27,01,53,-1.90
2006,11,27,01,54,-1.90
2006,11,27,01,55,-1.90
2006,11,27,01,56,-1.90
2006,11,27,01,57,-1.90
2006,11,27,01,58,-1.90
2006,11,27,01,59,-2.00
2006,11,27,02,00,-2.00
2006,11,27,02,01,-2.00
2006,11,27,02,02,-2.00
2006,11,27,02,03,-2.00
2006,11,27,02,04,-2.00
2006,11,27,02,05,-2.00
2006,11,27,02,06,-2.00
2006,11,27,02,07,-2.00
2006,11,27,02,08,-2.00
2006,11,27,02,09,-2.00
2006,11,27,02,10,-2.00
2006,11,27,02,11,-2.00
2006,11,27,02,12,-2.00
2006,11,27,02,13,-2.00
2006,11,27,02,14,-2.00
2006,11,27,02,15,-2.00
2006,11,27,02,16,-2.00
2006,11,27,02,17,-2.00
2006,11,27,02,18,-2.00
2006,11,27,02,19,-2.00
2006,11,27,02,20,-2.00
2006,11,27,02,21,-2.00
2006,11,27,02,22,-2.00
2006,11,27,02,23,-2.00
2006,11,27,02,24,-2.00
2006,11,27,02,25,-2.00
2006,11,27,02,26,-2.00
2006,11,27,02,27,-2.00
2006,11,27,02,28,-2.00
2006,11,27,02,29,-2.00
2006,11,27,02,30,-2.00
2006,11,27,02,31,-2.00
2006,11,27,02,32,-2.00
2006,11,27,02,33,-2.10
2006,11,27,02,34,-2.10
2006,11,27,02,35,-2.10
2006,11,27,02,36,-2.10
2006,11,27,02,37,-2.10
2006,11,27,02,38,-2.10
2006,11,27,02,39,-2.10
2006,11,27,02,40,-2.10
2006,11,27,02,41,-2.10
2006,11,27,02,42,-2.10
2006,11,27,02,43,-2.10
2006,11,27,02,44,-2.10
2006,11,27,02,45,-2.10
2006,11,27,02,46,-2.10
2006,11,27,02,47,-2.10
2006,11,27,02,48,-2.10
2006,11,27,02,49,-2.10
2006,11,27,02,50,-2.10
2006,11,27,02,51,-2.10
2006,11,27,02,52,-2.10
2006,11,27,02,53,-2.00
2006,11,27,02,54,-2.00
2006,11,27,02,55,-2.00
2006,11,27,02,56,-2.00
2006,11,27,02,57,-2.00
2006,11,27,02,58,-2.00
2006,11,27,02,59,-2.00
2006,11,27,03,00,-2.00
2006,11,27,03,01,-2.00
2006,11,27,03,02,-2.00
2006,11,27,03,03,-2.00
2006,11,27,03,04,-2.00
2006,11,27,03,05,-2.00
2006,11,27,03,06,-2.00
2006,11,27,03,07,-2.00
2006,11,27,03,08,-2.00
2006,11,27,03,09,-2.00
2006,11,27,03,10,-2.00
2006,11,27,03,11,-2.00
2006,11,27,03,12,-2.00
2006,11,27,03,13,-2.00
2006,11,27,03,14,-2.00
2006,11,27,03,15,-2.00
2006,11,27,03,16,-1.90
2006,11,27,03,17,-1.90
2006,11,27,03,18,-1.90
2006,11,27,03,19,-1.90
2006,11,27,03,20,-1.90
2006,11,27,03,21,-1.90
2006,11,27,03,22,-1.90
2006,11,27,03,23,-1.90
2006,11,27,03,24,-1.80
2006,11,27,03,25,-1.80
2006,11,27,03,26,-1.80
2006,11,27,03,27,-1.90
2006,11,27,03,28,-1.90
2006,11,27,03,29,-1.90
2006,11,27,03,30,-1.90
2006,11,27,03,31,-1.90
2006,11,27,03,32,-1.90
2006,11,27,03,33,-1.90
2006,11,27,03,34,-1.90
2006,11,27,03,35,-1.90
2006,11,27,03,36,-1.90
2006,11,27,03,37,-1.90
2006,11,27,03,38,-1.90
2006,11,27,03,39,-1.90
2006,11,27,03,40,-1.90
2006,11,27,03,41,-1.90
2006,11,27,03,42,-1.90
2006,11,27,03,43,-1.90
2006,11,27,03,44,-1.90
2006,11,27,03,45,-2.00
2006,11,27,03,46,-2.00
2006,11,27,03,47,-2.00
2006,11,27,03,48,-2.00
2006,11,27,03,49,-2.00
2006,11,27,03,50,-2.00
2006,11,27,03,51,-2.00
2006,11,27,03,52,-2.00
2006,11,27,03,53,-2.10
2006,11,27,03,54,-2.10
2006,11,27,03,55,-2.10
2006,11,27,03,56,-2.10
2006,11,27,03,57,-2.10
2006,11,27,03,58,-2.20
2006,11,27,03,59,-2.20
2006,11,27,04,00,-2.20
2006,11,27,04,01,-2.20
2006,11,27,04,02,-2.20
2006,11,27,04,03,-2.30
2006,11,27,04,04,-2.30
2006,11,27,04,05,-2.30
2006,11,27,04,06,-2.30
2006,11,27,04,07,-2.30
2006,11,27,04,08,-2.30
2006,11,27,04,09,-2.30
2006,11,27,04,10,-2.30
2006,11,27,04,11,-2.30
2006,11,27,04,12,-2.30
2006,11,27,04,13,-2.30
2006,11,27,04,14,-2.30
2006,11,27,04,15,-2.30
2006,11,27,04,16,-2.30
2006,11,27,04,17,-2.30
2006,11,27,04,18,-2.30
2006,11,27,04,19,-2.30
2006,11,27,04,20,-2.30
2006,11,27,04,21,-2.30
2006,11,27,04,22,-2.30
2006,11,27,04,23,-2.30
2006,11,27,04,24,-2.30
2006,11,27,04,25,-2.30
2006,11,27,04,26,-2.30
2006,11,27,04,27,-2.30
2006,11,27,04,28,-2.30
2006,11,27,04,29,-2.30
2006,11,27,04,30,-2.30
2006,11,27,04,31,-2.30
2006,11,27,04,32,-2.40
2006,11,27,04,33,-2.40
2006,11,27,04,34,-2.40
2006,11,27,04,35,-2.40
2006,11,27,04,36,-2.40
2006,11,27,04,37,-2.40
2006,11,27,04,38,-2.50
2006,11,27,04,39,-2.50
2006,11,27,04,40,-2.50
2006,11,27,04,41,-2.50
2006,11,27,04,42,-2.50
2006,11,27,04,43,-2.50
2006,11,27,04,44,-2.60
2006,11,27,04,45,-2.60
2006,11,27,04,46,-2.60
2006,11,27,04,47,-2.60
2006,11,27,04,48,-2.60
2006,11,27,04,49,-2.60
2006,11,27,04,50,-2.60
2006,11,27,04,51,-2.60
2006,11,27,04,52,-2.60
2006,11,27,04,53,-2.60
2006,11,27,04,54,-2.60
2006,11,27,04,55,-2.60
2006,11,27,04,56,-2.60
2006,11,27,04,57,-2.60
2006,11,27,04,58,-2.60
2006,11,27,04,59,-2.60
2006,11,27,05,00,-2.60
2006,11,27,05,01,-2.60
2006,11,27,05,02,-2.60
2006,11,27,05,03,-2.60
2006,11,27,05,04,-2.60
2006,11,27,05,05,-2.60
2006,11,27,05,06,-2.70
2006,11,27,05,07,-2.70
2006,11,27,05,08,-2.70
2006,11,27,05,09,-2.70
2006,11,27,05,10,-2.70
2006,11,27,05,11,-2.70
2006,11,27,05,12,-2.70
2006,11,27,05,13,-2.70
2006,11,27,05,14,-2.70
2006,11,27,05,15,-2.70
2006,11,27,05,16,-2.70
2006,11,27,05,17,-2.70
2006,11,27,05,18,-2.70
2006,11,27,14,31,-3.60
2006,11,27,14,32,-3.70
2006,11,27,14,33,-3.70
2006,11,27,14,34,-3.70
2006,11,27,14,35,-3.70
2006,11,27,14,36,-3.80
2006,11,27,14,37,-3.80
2006,11,27,14,38,-3.90
2006,11,27,14,39,-3.90
2006,11,27,14,40,-3.90
2006,11,27,14,41,-4.00
2006,11,27,14,42,-4.00
2006,11,27,14,43,-4.00
2006,11,27,14,44,-4.10
2006,11,27,14,45,-4.10
2006,11,27,14,46,-4.10
2006,11,27,14,47,-4.20
2006,11,27,14,48,-4.20
2006,11,27,14,49,-4.20
2006,11,27,14,50,-4.20
2006,11,27,14,51,-4.20
2006,11,27,14,52,-4.20
2006,11,27,14,53,-4.20
2006,11,27,14,54,-4.20
2006,11,27,14,55,-4.20
2006,11,27,14,56,-4.20
2006,11,27,14,57,-4.20
2006,11,27,14,58,-4.20
2006,11,27,14,59,-4.30
2006,11,27,15,00,-4.30
2006,11,27,15,01,-4.30
2006,11,27,15,02,-4.30
2006,11,27,15,03,-4.30
2006,11,27,15,04,-4.30
2006,11,27,15,05,-4.30
2006,11,27,15,06,-4.30
2006,11,27,15,07,-4.30
2006,11,27,15,08,-4.30
2006,11,27,15,09,-4.40
2006,11,27,15,10,-4.40
2006,11,27,15,11,-4.40
2006,11,27,15,12,-4.40
2006,11,27,15,13,-4.40
2006,11,27,15,14,-4.40
2006,11,27,15,15,-4.40
2006,11,27,15,16,-4.40
2006,11,27,15,17,-4.40
2006,11,27,15,18,-4.40
2006,11,27,15,19,-4.40
2006,11,27,15,20,-4.40
2006,11,27,15,21,-4.40
2006,11,27,15,22,-4.40
2006,11,27,15,23,-4.40
2006,11,27,15,24,-4.40
2006,11,27,15,25,-4.40
2006,11,27,15,26,-4.40
2006,11,27,15,27,-4.50
2006,11,27,15,28,-4.50
2006,11,27,15,29,-4.50
2006,11,27,15,30,-4.50
2006,11,27,15,31,-4.50
2006,11,27,15,32,-4.50
2006,11,27,15,33,-4.50
2006,11,27,15,34,-4.50
2006,11,27,15,35,-4.60
2006,11,27,15,36,-4.60
2006,11,27,15,37,-4.60
2006,11,27,15,38,-4.60
2006,11,27,15,39,-4.60
2006,11,27,15,40,-4.60
2006,11,27,15,41,-4.60
2006,11,27,15,42,-4.60
2006,11,27,15,43,-4.60
2006,11,27,15,44,-4.60
2006,11,27,15,45,-4.60
2006,11,27,15,46,-4.60
2006,11,27,15,47,-4.60
2006,11,27,15,48,-4.60
2006,11,27,15,49,-4.60
2006,11,27,15,50,-4.60
2006,11,27,15,51,-4.70
2006,11,27,15,52,-4.70
2006,11,27,15,53,-4.70
2006,11,27,15,54,-4.70
2006,11,27,15,55,-4.70
2006,11,27,15,56,-4.70
2006,11,27,15,57,-4.70
2006,11,27,15,58,-4.70
2006,11,27,15,59,-4.70
2006,11,27,16,00,-4.70
2006,11,27,16,01,-4.70
2006,11,27,16,02,-4.70
2006,11,27,16,03,-4.70
2006,11,27,16,04,-4.70
2006,11,27,16,05,-4.70
2006,11,27,16,06,-4.70
2006,11,27,16,07,-4.70
2006,11,27,16,08,-4.70
2006,11,27,16,09,-4.70
2006,11,27,16,10,-4.70
2006,11,27,16,11,-4.70
2006,11,27,16,12,-4.70
2006,11,27,16,13,-4.70
2006,11,27,16,14,-4.70
2006,11,27,16,15,-4.70
2006,11,27,16,16,-4.70
2006,11,27,16,17,-4.70
2006,11,27,16,18,-4.70
2006,11,27,16,19,-4.70
2006,11,27,16,20,-4.70
2006,11,27,16,21,-4.70
2006,11,27,16,22,-4.70
2006,11,27,16,23,-4.70
2006,11,27,16,24,-4.70
2006,11,27,16,25,-4.70
2006,11,27,16,26,-4.70
2006,11,27,16,27,-4.70
2006,11,27,16,28,-4.70
2006,11,27,16,29,-4.70
2006,11,27,16,30,-4.70
2006,11,27,16,31,-4.70
2006,11,27,16,32,-4.70
2006,11,27,16,33,-4.70
2006,11,27,16,34,-4.70
2006,11,27,16,35,-4.70
2006,11,27,16,36,-4.70
2006,11,27,16,37,-4.70
2006,11,27,16,38,-4.70
2006,11,27,16,39,-4.80
2006,11,27,16,40,-4.80
2006,11,27,16,41,-4.80
2006,11,27,16,42,-4.80
2006,11,27,16,43,-4.80
2006,11,27,16,44,-4.80
2006,11,27,16,45,-4.80
2006,11,27,16,46,-4.80
2006,11,27,16,47,-4.80
2006,11,27,16,48,-4.80
2006,11,27,16,49,-4.80
2006,11,27,16,50,-4.80
2006,11,27,16,51,-4.80
2006,11,27,16,52,-4.80
2006,11,27,16,53,-4.80
2006,11,27,16,54,-4.80
2006,11,27,16,55,-4.90
2006,11,27,16,56,-4.90
2006,11,27,16,57,-4.90
2006,11,27,16,58,-4.90
2006,11,27,16,59,-4.90
2006,11,27,17,00,-4.90
2006,11,27,17,01,-4.90
2006,11,27,17,02,-4.90
2006,11,27,17,03,-5.00
2006,11,27,17,04,-5.00
2006,11,27,17,05,-5.00
2006,11,27,17,06,-5.00
2006,11,27,17,07,-5.00
2006,11,27,17,08,-5.10
2006,11,27,17,09,-5.10
2006,11,27,17,10,-5.10
2006,11,27,17,11,-5.10
2006,11,27,17,12,-5.10
2006,11,27,17,13,-5.10
2006,11,27,17,14,-5.10
2006,11,27,17,15,-5.10
2006,11,27,17,16,-5.10
2006,11,27,17,17,-5.10
2006,11,27,17,18,-5.10
2006,11,27,17,19,-5.10
2006,11,27,17,20,-5.10
2006,11,27,17,21,-5.10
2006,11,27,17,22,-5.10
2006,11,27,17,23,-5.10
2006,11,27,17,24,-5.10
2006,11,27,17,25,-5.10
2006,11,27,17,26,-5.10
2006,11,27,17,27,-5.10
2006,11,27,17,28,-5.10
2006,11,27,17,29,-5.10
2006,11,27,17,30,-5.10
2006,11,27,17,31,-5.10
2006,11,27,17,32,-5.10
2006,11,27,17,33,-5.10
2006,11,27,17,34,-5.10
2006,11,27,17,35,-5.10
2006,11,27,17,36,-5.10
2006,11,27,17,37,-5.10
2006,11,27,17,38,-5.10
2006,11,27,17,39,-5.10
2006,11,27,17,40,-5.10
2006,11,27,17,41,-5.10
2006,11,27,17,42,-5.10
2006,11,27,17,43,-5.10
2006,11,27,17,44,-5.10
2006,11,27,17,45,-5.10
2006,11,27,17,46,-5.10
2006,11,27,17,47,-5.10
2006,11,27,17,48,-5.10
2006,11,27,17,49,-5.00
2006,11,27,17,50,-5.00
2006,11,27,17,51,-5.00
2006,11,27,17,52,-5.00
2006,11,27,17,53,-5.00
2006,11,27,17,54,-5.00
2006,11,27,17,55,-5.00
2006,11,27,17,56,-5.00
2006,11,27,17,57,-5.00
2006,11,27,17,58,-5.00
2006,11,27,17,59,-5.00
2006,11,27,18,00,-5.00
2006,11,27,18,01,-5.00
2006,11,27,18,02,-5.10
2006,11,27,18,03,-5.10
2006,11,27,18,04,-5.10
2006,11,27,18,05,-5.10
2006,11,27,18,06,-5.10
2006,11,27,18,07,-5.10
2006,11,27,18,08,-5.10
2006,11,27,18,09,-5.10
2006,11,27,18,10,-5.10
2006,11,27,18,11,-5.10
2006,11,27,18,12,-5.10
2006,11,27,18,13,-5.10
2006,11,27,18,14,-5.00
2006,11,27,18,15,-5.00
2006,11,27,18,16,-5.00
2006,11,27,18,17,-5.00
2006,11,27,18,18,-5.00
2006,11,27,18,19,-5.00
2006,11,27,18,20,-5.00
2006,11,27,18,21,-5.00
2006,11,27,18,22,-5.00
2006,11,27,18,23,-5.00
2006,11,27,18,24,-4.90
2006,11,27,18,25,-4.90
2006,11,27,18,26,-4.90
2006,11,27,18,27,-4.90
2006,11,27,18,28,-4.90
2006,11,27,18,29,-4.90
2006,11,27,18,30,-4.90
2006,11,27,18,31,-4.90
2006,11,27,18,32,-4.90
2006,11,27,18,33,-4.90
2006,11,27,18,34,-4.90
2006,11,27,18,35,-4.90
2006,11,27,18,36,-4.80
2006,11,27,18,37,-4.80
2006,11,27,18,38,-4.80
2006,11,27,18,39,-4.80
2006,11,27,18,40,-4.80
2006,11,27,18,41,-4.80
2006,11,27,18,42,-4.70
2006,11,27,18,43,-4.70
2006,11,27,18,44,-4.70
2006,11,27,18,45,-4.70
2006,11,27,18,46,-4.70
2006,11,27,18,47,-4.70
2006,11,27,18,48,-4.70
2006,11,27,18,49,-4.70
2006,11,27,18,50,-4.70
2006,11,27,18,51,-4.70
2006,11,27,18,52,-4.70
2006,11,27,18,53,-4.70
2006,11,27,18,54,-4.70
2006,11,27,18,55,-4.70
2006,11,27,18,56,-4.70
2006,11,27,18,57,-4.70
2006,11,27,18,58,-4.70
2006,11,27,18,59,-4.60
2006,11,27,19,00,-4.60
2006,11,27,19,01,-4.60
2006,11,27,19,02,-4.60
2006,11,27,19,03,-4.60
2006,11,27,19,04,-4.60
2006,11,27,19,05,-4.60
2006,11,27,19,06,-4.60
2006,11,27,19,07,-4.60
2006,11,27,19,08,-4.60
2006,11,27,19,09,-4.70
2006,11,27,19,10,-4.70
2006,11,27,19,11,-4.70
2006,11,27,19,12,-4.70
2006,11,27,19,13,-4.70
2006,11,27,19,14,-4.70
2006,11,27,19,15,-4.70
2006,11,27,19,16,-4.70
2006,11,27,19,17,-4.70
2006,11,27,19,18,-4.70
2006,11,27,19,19,-4.70
2006,11,27,19,20,-4.70
2006,11,27,19,21,-4.70
2006,11,27,19,22,-4.70
2006,11,27,19,23,-4.70
2006,11,27,19,24,-4.70
2006,11,27,19,25,-4.70
2006,11,27,19,26,-4.70
2006,11,27,19,27,-4.70
2006,11,27,19,28,-4.70
2006,11,27,19,29,-4.70
2006,11,27,19,30,-4.70
2006,11,27,19,31,-4.70
2006,11,27,19,32,-4.70
2006,11,27,19,33,-4.70
2006,11,27,19,34,-4.70
2006,11,27,19,35,-4.70
2006,11,27,19,36,-4.70
2006,11,27,19,37,-4.70
2006,11,27,19,38,-4.70
2006,11,27,19,39,-4.70
2006,11,27,19,40,-4.70
2006,11,27,19,41,-4.70
2006,11,27,19,42,-4.70
2006,11,27,19,43,-4.70
2006,11,27,19,44,-4.70
2006,11,27,19,45,-4.70
2006,11,27,19,46,-4.70
2006,11,27,19,47,-4.70
2006,11,27,19,48,-4.70
2006,11,27,19,49,-4.70
2006,11,27,19,50,-4.70
2006,11,27,19,51,-4.70
2006,11,27,19,52,-4.80
2006,11,27,19,53,-4.80
2006,11,27,19,54,-4.80
2006,11,27,19,55,-4.80
2006,11,27,19,56,-4.80
2006,11,27,19,57,-4.80
2006,11,27,19,58,-4.80
2006,11,27,19,59,-4.80
2006,11,27,20,00,-4.80
2006,11,27,20,01,-4.80
2006,11,27,20,02,-4.80
2006,11,27,20,03,-4.80
2006,11,27,20,04,-4.80
2006,11,27,20,05,-4.80
2006,11,27,20,06,-4.80
2006,11,27,20,07,-4.80
2006,11,27,20,08,-4.80
2006,11,27,20,09,-4.80
2006,11,27,20,10,-4.80
2006,11,27,20,11,-4.80
2006,11,27,20,12,-4.80
2006,11,27,20,13,-4.80
2006,11,27,20,14,-4.80
2006,11,27,20,15,-4.80
2006,11,27,20,16,-4.80
2006,11,27,20,17,-4.80
2006,11,27,20,18,-4.80
2006,11,27,20,19,-4.80
2006,11,27,20,20,-4.80
2006,11,27,20,21,-4.80
2006,11,27,20,22,-4.80
2006,11,27,20,23,-4.80
2006,11,27,20,24,-4.70
2006,11,27,20,25,-4.70
2006,11,27,20,26,-4.70
2006,11,27,20,27,-4.70
2006,11,27,20,28,-4.70
2006,11,27,20,29,-4.70
2006,11,27,20,30,-4.70
2006,11,27,20,31,-4.70
2006,11,27,20,32,-4.70
2006,11,27,20,33,-4.70
2006,11,27,20,34,-4.70
2006,11,27,20,35,-4.70
2006,11,27,20,36,-4.70
2006,11,27,20,37,-4.70
2006,11,27,20,38,-4.70
2006,11,27,20,39,-4.70
2006,11,27,20,40,-4.70
2006,11,27,20,41,-4.70
2006,11,27,20,42,-4.70
2006,11,27,20,43,-4.70
2006,11,27,20,44,-4.70
2006,11,27,20,45,-4.70
2006,11,27,20,46,-4.70
2006,11,27,20,47,-4.70
2006,11,27,20,48,-4.70
2006,11,27,20,49,-4.60
2006,11,27,20,50,-4.60
2006,11,27,20,51,-4.60
2006,11,27,20,52,-4.60
2006,11,27,20,53,-4.60
2006,11,27,20,54,-4.60
2006,11,27,20,55,-4.60
2006,11,27,20,56,-4.60
2006,11,27,20,57,-4.60
2006,11,27,20,58,-4.60
2006,11,27,20,59,-4.60
2006,11,27,21,00,-4.60
2006,11,27,21,01,-4.60
2006,11,27,21,02,-4.60
2006,11,27,21,03,-4.60
2006,11,27,21,04,-4.60
2006,11,27,21,05,-4.60
2006,11,27,21,06,-4.60
2006,11,27,21,07,-4.60
2006,11,27,21,08,-4.60
2006,11,27,21,09,-4.60
2006,11,27,21,10,-4.60
2006,11,27,21,11,-4.70
2006,11,27,21,12,-4.70
2006,11,27,21,13,-4.70
2006,11,27,21,14,-4.70
2006,11,27,21,15,-4.70
2006,11,27,21,16,-4.70
2006,11,27,21,17,-4.70
2006,11,27,21,18,-4.70
2006,11,27,21,19,-4.70
2006,11,27,21,20,-4.70
2006,11,27,21,21,-4.70
2006,11,27,21,22,-4.70
2006,11,27,21,23,-4.70
2006,11,27,21,24,-4.70
2006,11,27,21,25,-4.70
2006,11,27,21,26,-4.70
2006,11,27,21,27,-4.70
2006,11,27,21,28,-4.70
2006,11,27,21,29,-4.70
2006,11,27,21,30,-4.70
2006,11,27,21,31,-4.70
2006,11,27,21,32,-4.70
2006,11,27,21,33,-4.70
2006,11,27,21,34,-4.70
2006,11,27,21,35,-4.70
2006,11,27,21,36,-4.70
2006,11,27,21,37,-4.70
2006,11,27,21,38,-4.70
2006,11,27,21,39,-4.70
2006,11,27,21,40,-4.70
2006,11,27,21,41,-4.70
2006,11,27,21,42,-4.70
2006,11,27,21,43,-4.70
2006,11,27,21,44,-4.80
2006,11,27,21,45,-4.80
2006,11,27,21,46,-4.80
2006,11,27,21,47,-4.80
2006,11,27,21,48,-4.80
2006,11,27,21,49,-4.80
2006,11,27,21,50,-4.80
2006,11,27,21,51,-4.90
2006,11,27,21,52,-4.90
2006,11,27,21,53,-4.90
2006,11,27,21,54,-4.90
2006,11,27,21,55,-4.90
2006,11,27,21,56,-4.90
2006,11,27,21,57,-4.90
2006,11,27,21,58,-4.90
2006,11,27,21,59,-4.90
2006,11,27,22,00,-4.90
2006,11,27,22,01,-4.90
2006,11,27,22,02,-4.90
2006,11,27,22,03,-4.90
2006,11,27,22,04,-4.90
2006,11,27,22,05,-4.90
2006,11,27,22,06,-4.90
2006,11,27,22,07,-4.90
2006,11,27,22,08,-4.90
2006,11,27,22,09,-4.90
2006,11,27,22,10,-4.90
2006,11,27,22,11,-4.90
2006,11,27,22,12,-4.90
2006,11,27,22,13,-4.90
2006,11,27,22,14,-4.90
2006,11,27,22,15,-4.90
2006,11,27,22,16,-5.00
2006,11,27,22,17,-5.00
2006,11,27,22,18,-5.00
2006,11,27,22,19,-5.00
2006,11,27,22,20,-5.00
2006,11,27,22,21,-5.00
2006,11,27,22,22,-5.00
2006,11,27,22,23,-5.00
2006,11,27,22,24,-5.00
2006,11,27,22,25,-5.00
2006,11,27,22,26,-5.00
2006,11,27,22,27,-5.00
2006,11,27,22,28,-5.10
2006,11,27,22,29,-5.10
2006,11,27,22,30,-5.10
2006,11,27,22,31,-5.10
2006,11,27,22,32,-5.10
2006,11,27,22,33,-5.10
2006,11,27,22,34,-5.10
2006,11,27,22,35,-5.10
2006,11,27,22,36,-5.20
2006,11,27,22,37,-5.20
2006,11,27,22,38,-5.20
2006,11,27,22,39,-5.20
2006,11,27,22,40,-5.20
2006,11,27,22,41,-5.20
2006,11,27,22,42,-5.20
2006,11,27,22,43,-5.20
2006,11,27,22,44,-5.20
2006,11,27,22,45,-5.20
2006,11,27,22,46,-5.20
2006,11,27,22,47,-5.30
2006,11,27,22,48,-5.30
2006,11,27,22,49,-5.30
2006,11,27,22,50,-5.30
2006,11,27,22,51,-5.30
2006,11,27,22,52,-5.30
2006,11,27,22,53,-5.30
2006,11,27,22,54,-5.30
2006,11,27,22,55,-5.30
2006,11,27,22,56,-5.30
2006,11,27,22,57,-5.30
2006,11,27,22,58,-5.30
2006,11,27,22,59,-5.30
2006,11,27,23,00,-5.30
2006,11,27,23,01,-5.30
2006,11,27,23,02,-5.30
2006,11,27,23,03,-5.30
2006,11,27,23,04,-5.30
2006,11,27,23,05,-5.30
2006,11,27,23,06,-5.30
2006,11,27,23,07,-5.30
2006,11,27,23,08,-5.30
2006,11,27,23,09,-5.30
2006,11,27,23,10,-5.30
2006,11,27,23,11,-5.30
2006,11,27,23,12,-5.30
2006,11,27,23,13,-5.30
2006,11,27,23,14,-5.30
2006,11,27,23,15,-5.30
2006,11,27,23,16,-5.30
2006,11,27,23,17,-5.30
2006,11,27,23,18,-5.30
2006,11,27,23,19,-5.30
2006,11,27,23,20,-5.30
2006,11,27,23,21,-5.30
2006,11,27,23,22,-5.30
2006,11,27,23,23,-5.30
2006,11,27,23,24,-5.30
2006,11,27,23,25,-5.30
2006,11,27,23,26,-5.30
2006,11,27,23,27,-5.30
2006,11,27,23,28,-5.30
2006,11,27,23,29,-5.30
2006,11,27,23,30,-5.30
2006,11,27,23,31,-5.30
2006,11,27,23,32,-5.30
2006,11,27,23,33,-5.30
2006,11,27,23,34,-5.30
2006,11,27,23,35,-5.30
2006,11,27,23,36,-5.30
2006,11,27,23,37,-5.30
2006,11,27,23,38,-5.40
2006,11,27,23,39,-5.40
2006,11,27,23,40,-5.40
2006,11,27,23,41,-5.40
2006,11,27,23,42,-5.40
2006,11,27,23,43,-5.40
2006,11,27,23,44,-5.40
2006,11,27,23,45,-5.40
2006,11,27,23,46,-5.40
2006,11,27,23,47,-5.40
2006,11,27,23,48,-5.40
2006,11,27,23,49,-5.40
2006,11,27,23,50,-5.50
2006,11,27,23,51,-5.50
2006,11,27,23,52,-5.50
2006,11,27,23,53,-5.50
2006,11,27,23,54,-5.50
2006,11,27,23,55,-5.50
2006,11,27,23,56,-5.50
2006,11,27,23,57,-5.50
2006,11,27,23,58,-5.60
2006,11,27,23,59,-5.60
